EA6AMI-5 Weather Reports


time (UTC)temp
C
wind
direction
speed
KPH
gust
KPH
rain 1hr
cm
rain 24hr
cm
rain mn
cm
humidity
%
barometer
mb
20260506233604 12 126 4.8 6.4 0.00 0.46 0.00 91 1013.1
20260506232703 12 109 3.2 4.8 0.00 0.46 0.00 91 1013.1
20260506231803 12 67 1.6 3.2 0.00 0.46 0.00 91 1013.1
20260506230904 12 77 3.2 4.8 0.00 0.46 0.00 90 1013.1
20260506230004 12 98 3.2 8.0 0.00 0.46 0.00 90 1013.2
20260506225403 12 95 1.6 6.4 0.00 0.46 0.00 90 1013.4
20260506224503 12 115 3.2 6.4 0.00 0.46 0.00 90 1013.3
20260506223603 13 117 4.8 8.0 0.00 0.46 0.00 89 1013.4
20260506222703 13 118 1.6 8.0 0.00 0.46 0.00 89 1013.3
20260506221803 13 56 1.6 6.4 0.00 0.46 0.00 90 1013.2
20260506220903 13 110 1.6 3.2 0.00 0.46 0.00 90 1013.4
20260506220003 13 88 1.6 3.2 0.00 0.46 0.00 90 1013.4
20260506215403 13 109 3.2 6.4 0.00 0.46 0.46 90 1013.4
20260506214503 13 77 3.2 6.4 0.00 0.46 0.46 91 1013.4
20260506213603 13 91 3.2 6.4 0.00 0.46 0.46 90 1013.5
20260506212703 13 117 3.2 4.8 0.00 0.46 0.46 90 1013.3
20260506211803 13 87 3.2 4.8 0.00 0.46 0.46 90 1013.7
20260506210903 13 88 3.2 6.4 0.00 0.46 0.46 89 1013.5
20260506210004 14 118 4.8 9.7 0.00 0.46 0.46 89 1013.8
20260506205404 14 118 1.6 6.4 0.00 0.46 0.46 89 1013.5
20260506204504 14 85 1.6 4.8 0.00 0.46 0.46 88 1013.6
20260506203603 14 88 3.2 4.8 0.00 0.46 0.46 88 1013.5
20260506202704 14 99 1.6 3.2 0.00 0.46 0.46 87 1013.2
20260506201803 14 111 3.2 4.8 0.00 0.46 0.46 87 1013.3
20260506200903 15 88 1.6 3.2 0.00 0.46 0.46 86 1013.4
20260506200004 15 55 3.2 4.8 0.00 0.46 0.46 87 1013.2
20260506195403 15 60 1.6 3.2 0.00 0.46 0.46 87 1013.2
20260506194503 15 96 1.6 3.2 0.00 0.46 0.46 88 1013.0
20260506193604 15 56 3.2 6.4 0.00 0.46 0.46 88 1012.7
20260506192703 15 56 4.8 6.4 0.00 0.46 0.46 86 1012.9
20260506191803 15 122 1.6 6.4 0.00 0.46 0.46 86 1012.7
20260506190904 16 100 1.6 3.2 0.00 0.46 0.46 85 1012.5
20260506190004 16 125 1.6 4.8 0.00 0.46 0.46 84 1012.4
20260506185403 16 144 3.2 6.4 0.00 0.46 0.46 82 1012.4
20260506184504 16 71 1.6 4.8 0.00 0.46 0.46 81 1012.1
20260506183604 16 45 3.2 8.0 0.00 0.46 0.46 80 1012.2
20260506182704 17 61 3.2 6.4 0.00 0.46 0.46 80 1012.3
20260506181803 17 84 3.2 6.4 0.00 0.46 0.46 78 1012.1
20260506180903 17 139 3.2 6.4 0.00 0.46 0.46 78 1012.2
20260506180004 17 118 3.2 6.4 0.00 0.46 0.46 74 1011.9
20260506175404 17 88 3.2 8.0 0.00 0.46 0.46 74 1012.0
20260506174503 18 106 1.6 6.4 0.00 0.46 0.46 73 1011.9
20260506173603 18 44 1.6 4.8 0.00 0.46 0.46 75 1012.1
20260506172703 18 36 3.2 9.7 0.00 0.46 0.46 77 1012.0
20260506171803 18 62 4.8 9.7 0.00 0.46 0.46 76 1011.9
20260506170903 17 53 4.8 11.3 0.00 0.46 0.46 77 1011.9
20260506170003 17 98 4.8 9.7 0.00 0.46 0.46 80 1011.8
20260506165403 17 120 4.8 8.0 0.00 0.46 0.46 80 1012.0
20260506164504 17 131 4.8 9.7 0.00 0.46 0.46 79 1012.1
20260506163603 18 138 4.8 9.7 0.00 0.46 0.46 78 1012.0
20260506162703 17 205 3.2 6.4 0.00 0.46 0.46 75 1011.8
20260506161803 17 23 4.8 14.5 0.00 0.46 0.46 79 1011.8
20260506160903 17 71 4.8 14.5 0.00 0.46 0.46 80 1011.5
20260506160003 16 58 3.2 6.4 0.03 0.46 0.46 77 1011.8
20260506155403 16 101 3.2 6.4 0.08 0.46 0.46 78 1011.9
20260506154503 16 38 3.2 4.8 0.10 0.46 0.46 78 1012.1
20260506153603 16 41 3.2 8.0 0.10 0.46 0.46 74 1012.1
20260506152703 16 32 3.2 8.0 0.13 0.46 0.46 80 1012.2
20260506151803 16 50 6.4 12.9 0.18 0.46 0.46 82 1012.1
20260506150903 15 37 6.4 14.5 0.33 0.46 0.46 83 1011.7
20260506150004 16 45 6.4 9.7 0.33 0.43 0.43 87 1012.0
20260506145403 16 28 4.8 9.7 0.33 0.38 0.38 87 1012.1
20260506144504 16 36 3.2 6.4 0.30 0.36 0.36 87 1012.1
20260506143603 16 37 3.2 9.7 0.28 0.33 0.33 86 1012.3
20260506142704 16 54 4.8 9.7 0.28 0.33 0.33 85 1012.1
20260506141803 16 65 1.6 6.4 0.23 0.25 0.25 83 1012.2
20260506140903 16 67 3.2 6.4 0.13 0.13 0.13 82 1012.7
20260506140004 16 39 4.8 9.7 0.08 0.08 0.08 83 1012.5
20260506135403 16 38 8.0 14.5 0.05 0.05 0.05 83 1012.4
20260506134503 17 46 8.0 14.5 0.05 0.05 0.05 83 1012.0
20260506133603 17 74 8.0 14.5 0.05 0.05 0.05 83 1012.3
20260506132703 17 72 8.0 16.1 0.05 0.05 0.05 80 1012.4
20260506131803 18 64 8.0 17.7 0.03 0.03 0.03 77 1012.4
20260506130903 18 60 8.0 16.1 0.00 0.00 0.00 73 1012.4
20260506130003 17 103 11.3 22.5 0.00 0.00 0.00 73 1012.2
20260506125403 18 101 9.7 20.9 0.00 0.00 0.00 70 1012.4
20260506124504 18 82 11.3 24.1 0.00 0.00 0.00 68 1012.1
20260506123603 18 103 11.3 25.7 0.00 0.00 0.00 68 1012.1
20260506122703 19 110 9.7 20.9 0.00 0.00 0.00 63 1011.9
20260506121803 20 103 9.7 24.1 0.00 0.00 0.00 62 1011.6
20260506120904 20 115 6.4 19.3 0.00 0.00 0.00 60 1011.7
20260506120003 20 56 6.4 14.5 0.00 0.00 0.00 60 1011.5
20260506115403 20 33 8.0 16.1 0.00 0.00 0.00 62 1011.2
20260506114503 20 21 8.0 14.5 0.00 0.00 0.00 61 1011.5
20260506113603 21 39 8.0 17.7 0.00 0.00 0.00 60 1011.6
20260506112703 22 77 6.4 17.7 0.00 0.00 0.00 52 1011.4
20260506111803 22 91 4.8 14.5 0.00 0.00 0.00 47 1011.6
20260506110903 22 146 6.4 12.9 0.00 0.00 0.00 44 1011.6
20260506110004 22 137 8.0 16.1 0.00 0.00 0.00 46 1011.9
20260506105403 22 146 8.0 17.7 0.00 0.00 0.00 46 1012.0
20260506104504 22 143 6.4 24.1 0.00 0.00 0.00 48 1011.8
20260506103603 21 150 6.4 17.7 0.00 0.00 0.00 50 1012.0
20260506102704 21 165 8.0 16.1 0.00 0.00 0.00 51 1012.0
20260506101803 21 153 6.4 12.9 0.00 0.00 0.00 50 1012.2
20260506100904 21 155 6.4 17.7 0.00 0.00 0.00 52 1012.0
20260506100004 21 165 6.4 17.7 0.00 0.00 0.00 52 1012.3
20260506095403 21 156 6.4 16.1 0.00 0.00 0.00 53 1012.1
20260506094503 21 139 8.0 16.1 0.00 0.00 0.00 54 1012.0
20260506093604 21 120 4.8 16.1 0.00 0.00 0.00 53 1012.2
20260506092703 20 109 6.4 17.7 0.00 0.00 0.00 57 1012.0
20260506091803 20 85 6.4 12.9 0.00 0.00 0.00 56 1012.2
20260506090903 20 138 6.4 19.3 0.00 0.00 0.00 58 1012.1
20260506090004 20 137 6.4 12.9 0.00 0.00 0.00 56 1012.0
20260506085403 20 126 4.8 12.9 0.00 0.00 0.00 56 1012.1
20260506084503 19 161 4.8 11.3 0.00 0.00 0.00 59 1012.0
20260506083603 20 124 4.8 11.3 0.00 0.00 0.00 59 1012.4
20260506082703 19 137 6.4 14.5 0.00 0.00 0.00 60 1012.2
20260506081804 19 145 4.8 14.5 0.00 0.00 0.00 64 1012.3
20260506080903 18 136 4.8 14.5 0.00 0.00 0.00 64 1012.3
20260506072704 17 118 4.8 8.0 0.00 0.00 0.00 70 1012.3
20260506071803 17 114 4.8 9.7 0.00 0.00 0.00 72 1012.3
20260506070904 17 123 6.4 11.3 0.00 0.00 0.00 77 1012.1
20260506061803 14 107 3.2 8.0 0.00 0.00 0.00 86 1012.5
20260506060904 14 67 3.2 6.4 0.00 0.00 0.00 87 1012.5
20260506050903 12 120 3.2 8.0 0.00 0.00 0.00 85 1011.9
20260506044504 12 129 3.2 8.0 0.00 0.00 0.00 83 1011.8
20260506043603 12 101 3.2 6.4 0.00 0.00 0.00 82 1011.4
20260506042703 12 94 1.6 4.8 0.00 0.00 0.00 83 1011.5
20260506041803 12 143 3.2 4.8 0.00 0.00 0.00 86 1011.4
20260506040903 12 123 4.8 9.7 0.00 0.00 0.00 84 1011.6
20260506040004 12 126 4.8 9.7 0.00 0.00 0.00 84 1011.4
20260506035403 12 132 3.2 9.7 0.00 0.00 0.00 84 1011.2
20260506034504 12 147 3.2 6.4 0.00 0.00 0.00 86 1011.2
20260506033603 12 126 3.2 8.0 0.00 0.00 0.00 86 1011.2
20260506032703 12 27 4.8 11.3 0.00 0.00 0.00 86 1011.1
20260506031803 12 82 4.8 11.3 0.00 0.00 0.00 86 1011.2
20260506030903 12 114 3.2 8.0 0.00 0.00 0.00 85 1010.9
20260506030003 12 112 4.8 9.7 0.00 0.00 0.00 84 1010.9
20260506025403 12 130 4.8 11.3 0.00 0.00 0.00 83 1010.9
20260506024503 13 62 4.8 8.0 0.00 0.00 0.00 84 1011.0
20260506023603 12 69 4.8 9.7 0.00 0.00 0.00 83 1011.1
20260506022704 13 128 4.8 8.0 0.00 0.00 0.00 83 1011.1
20260506021803 13 50 3.2 8.0 0.00 0.00 0.00 84 1010.9
20260506020903 13 99 3.2 8.0 0.00 0.00 0.00 82 1011.1
20260506020004 13 134 3.2 9.7 0.00 0.00 0.00 80 1011.1
20260506015403 13 149 4.8 8.0 0.00 0.00 0.00 79 1011.1
20260506014503 14 161 4.8 12.9 0.00 0.00 0.00 79 1011.0
20260506013603 13 341 3.2 11.3 0.00 0.00 0.00 81 1011.0
20260506012704 13 80 3.2 8.0 0.00 0.00 0.00 81 1011.1
20260506011803 14 148 3.2 4.8 0.00 0.00 0.00 79 1011.2
20260506010903 14 98 1.6 4.8 0.00 0.00 0.00 80 1011.2
20260506010004 14 137 3.2 4.8 0.00 0.00 0.00 80 1011.2
20260506005403 14 117 1.6 4.8 0.00 0.00 0.00 80 1011.1
20260506004504 14 73 1.6 8.0 0.00 0.00 0.00 80 1011.6
20260506003604 15 132 4.8 9.7 0.00 0.00 0.00 79 1011.4
20260506002703 15 125 1.6 3.2 0.00 0.00 0.00 77 1011.6
20260506001803 15 152 3.2 6.4 0.00 0.00 0.00 78 1011.7
20260506000904 15 165 1.6 8.0 0.00 0.00 0.00 78 1011.5
20260506000004 15 140 6.4 8.0 0.00 0.00 0.00 78 1011.7
20260505235403 15 123 4.8 9.7 0.00 0.00 0.00 76 1011.9
20260505234504 16 47 4.8 12.9 0.00 0.00 0.00 74 1011.8